IK1EJA-5 Weather Reports


Display with metric or nautical units.
time (UTC)temp
F
wind
direction
speed
MPH
gust
MPH
rain 1hr
in
rain 24hr
in
rain mn
in
humidity
%
barometer
mb
20260507214102 0 80 0.0 1.0 0.00 0.00 0.04 99 1014.7
20260507213603 0 79 0.0 0.0 0.00 0.00 0.04 99 1014.7
20260507213102 0 89 1.0 1.0 0.00 0.00 0.04 99 1014.7
20260507212103 0 80 0.0 0.0 0.00 0.00 0.04 99 1014.6
20260507211103 0 84 0.0 1.0 0.00 0.00 0.04 99 1014.6
20260507210604 0 59 0.0 0.0 0.00 0.00 0.04 99 1014.7
20260507205602 0 66 0.0 1.0 0.00 0.00 0.04 99 1014.7
20260507205102 0 30 0.0 1.0 0.00 0.00 0.04 99 1014.7
20260507204603 0 40 0.0 1.0 0.00 0.00 0.04 99 1014.6
20260507204103 0 81 1.0 1.0 0.00 0.00 0.04 99 1014.7
20260507203603 0 1 0.0 1.0 0.00 0.00 0.04 99 1014.7
20260507203103 0 98 0.0 1.0 0.00 0.00 0.04 99 1014.7
20260507202603 0 120 0.0 1.0 0.00 0.00 0.04 99 1014.3
20260507202103 0 251 0.0 1.0 0.00 0.00 0.04 99 1014.3
20260507201603 0 248 1.0 1.0 0.00 0.00 0.04 99 1014.6
20260507201104 0 298 1.0 1.0 0.00 0.00 0.04 99 1014.2
20260507200602 0 358 0.0 0.0 0.00 0.00 0.04 99 1014.3
20260507195602 0 270 1.0 2.0 0.00 0.00 0.04 99 1014.2
20260507195102 0 39 0.0 1.0 0.00 0.00 0.04 99 1014.2
20260507194604 0 39 0.0 0.0 0.00 0.00 0.04 99 1014.1
20260507194103 0 150 0.0 1.0 0.00 0.00 0.04 99 1014.2
20260507193602 0 135 1.0 1.0 0.00 0.00 0.04 99 1014.3
20260507192603 0 169 0.0 0.0 0.00 0.00 0.04 99 1014.2
20260507192102 0 66 0.0 0.0 0.00 0.00 0.04 99 1014.2
20260507191603 0 67 0.0 1.0 0.00 0.00 0.04 99 1014.2
20260507191102 0 93 1.0 1.0 0.00 0.00 0.04 99 1013.8
20260507190604 0 359 0.0 0.0 0.00 0.00 0.04 99 1014.0
20260507185603 0 309 1.0 2.0 0.00 0.00 0.04 99 1014.0
20260507185102 0 356 0.0 1.0 0.00 0.00 0.04 99 1014.1
20260507184603 0 2 1.0 1.0 0.00 0.00 0.04 99 1014.0
20260507184102 0 183 0.0 0.0 0.00 0.00 0.04 99 1014.0
20260507183603 0 183 0.0 1.0 0.00 0.00 0.04 99 1014.1
20260507183103 0 181 1.0 2.0 0.00 0.00 0.04 99 1014.0
20260507182602 0 96 0.0 1.0 0.00 0.00 0.04 99 1014.0
20260507182103 0 83 0.0 1.0 0.00 0.00 0.04 99 1014.0
20260507181603 0 130 1.0 1.0 0.00 0.00 0.04 99 1014.1
20260507181103 0 20 0.0 0.0 0.00 0.00 0.04 99 1013.7
20260507180603 0 20 0.0 1.0 0.00 0.00 0.04 98 1013.7
20260507175603 0 88 0.0 0.0 0.00 0.00 0.04 98 1014.1
20260507175103 0 90 1.0 1.0 0.00 0.00 0.04 97 1013.7
20260507174603 0 82 0.0 0.0 0.00 0.00 0.04 97 1013.8
20260507173104 0 27 1.0 1.0 0.00 0.00 0.04 95 1013.8
20260507172602 0 63 0.0 0.0 0.00 0.00 0.04 95 1013.8
20260507172103 0 206 0.0 1.0 0.00 0.00 0.04 94 1013.7
20260507171603 0 180 1.0 2.0 0.00 0.00 0.04 94 1013.8
20260507171103 0 116 1.0 2.0 0.00 0.00 0.04 93 1013.8
20260507170602 0 244 2.0 2.0 0.00 0.00 0.04 92 1013.7
20260507165602 0 191 2.0 2.0 0.00 0.00 0.04 92 1013.6
20260507165102 0 201 2.0 2.0 0.00 0.00 0.04 90 1013.5
20260507164602 0 191 2.0 3.0 0.00 0.00 0.04 90 1013.5
20260507164104 0 187 2.0 3.0 0.00 0.00 0.04 90 1013.7
20260507163603 0 189 2.0 3.0 0.00 0.00 0.04 87 1013.7
20260507163104 0 161 2.0 3.0 0.00 0.00 0.04 86 1013.7
20260507162603 0 159 1.0 1.0 0.00 0.00 0.04 85 1013.7
20260507162103 0 163 3.0 4.0 0.00 0.00 0.04 84 1013.7
20260507161103 0 162 1.0 1.0 0.00 0.00 0.04 85 1013.8
20260507160603 0 180 3.0 3.0 0.00 0.00 0.04 84 1013.6
20260507160103 0 201 3.0 5.0 0.00 0.00 0.04 83 1013.7
20260507155603 0 323 0.0 0.0 0.00 0.00 0.04 82 1013.8
20260507155104 0 328 1.0 1.0 0.00 0.00 0.04 79 1013.8
20260507154603 0 27 0.0 1.0 0.00 0.00 0.04 83 1013.7
20260507154104 0 137 2.0 3.0 0.00 0.00 0.04 83 1014.0
20260507153603 0 107 2.0 2.0 0.00 0.00 0.04 85 1014.0
20260507153102 0 323 0.0 0.0 0.00 0.00 0.04 85 1013.8
20260507152606 0 180 4.0 4.0 0.00 0.00 0.04 86 1014.1
20260507152102 0 163 4.0 5.0 0.00 0.00 0.04 86 1014.0
20260507151602 0 193 2.0 4.0 0.00 0.00 0.04 86 1014.0
20260507151102 0 73 2.0 3.0 0.00 0.00 0.04 85 1013.7
20260507150602 0 101 2.0 3.0 0.00 0.00 0.04 84 1013.7
20260507145603 0 159 4.0 5.0 0.00 0.00 0.04 84 1013.6
20260507145103 0 180 2.0 4.0 0.00 0.00 0.04 86 1014.0
20260507144602 0 110 1.0 1.0 0.00 0.00 0.04 85 1014.0
20260507144103 0 190 3.0 3.0 0.00 0.00 0.04 85 1013.8
20260507143603 0 157 1.0 2.0 0.00 0.00 0.04 83 1014.0
20260507143103 0 171 1.0 2.0 0.00 0.00 0.04 84 1014.0
20260507142602 0 150 2.0 3.0 0.00 0.00 0.04 84 1013.8
20260507142103 0 49 2.0 5.0 0.00 0.00 0.04 84 1014.1
20260507141602 0 173 4.0 5.0 0.00 0.00 0.04 85 1014.1
20260507141102 0 205 2.0 3.0 0.00 0.00 0.04 85 1014.0
20260507140603 0 194 1.0 2.0 0.00 0.00 0.04 85 1014.0
20260507135603 0 94 4.0 5.0 0.00 0.00 0.04 85 1014.2
20260507135103 0 202 4.0 5.0 0.00 0.00 0.04 85 1014.2
20260507134603 0 140 1.0 2.0 0.00 0.00 0.04 86 1014.1
20260507134103 0 167 2.0 3.0 0.00 0.00 0.04 85 1014.1
20260507133603 0 137 2.0 3.0 0.00 0.00 0.04 86 1014.2
20260507133102 0 175 3.0 4.0 0.00 0.00 0.04 85 1014.2
20260507132603 0 160 3.0 4.0 0.00 0.00 0.04 84 1014.2
20260507132102 0 200 2.0 4.0 0.00 0.00 0.04 83 1014.0
20260507131603 0 184 3.0 5.0 0.00 0.00 0.04 85 1014.1
20260507131102 0 101 1.0 2.0 0.00 0.00 0.04 85 1014.2
20260507130603 0 173 4.0 5.0 0.00 0.00 0.04 86 1014.2
20260507125602 0 163 5.0 6.0 0.00 0.00 0.04 86 1014.2
20260507125102 0 188 4.0 5.0 0.00 0.00 0.04 86 1014.2
20260507124603 0 209 4.0 4.0 0.00 0.00 0.04 83 1014.1
20260507124103 0 188 4.0 6.0 0.00 0.00 0.04 83 1014.2
20260507123603 0 159 8.0 10.0 0.00 0.00 0.04 80 1014.2
20260507123103 0 153 4.0 5.0 0.00 0.00 0.04 81 1014.2
20260507122602 0 167 4.0 5.0 0.00 0.00 0.04 82 1014.2
20260507122103 0 189 4.0 5.0 0.00 0.00 0.04 82 1014.2
20260507121602 0 190 6.0 6.0 0.00 0.00 0.04 82 1014.3
20260507121103 0 199 6.0 8.0 0.00 0.00 0.04 82 1014.1
20260507120602 0 143 3.0 4.0 0.00 0.00 0.04 81 1014.1
20260507115603 0 183 7.0 10.0 0.00 0.00 0.04 81 1014.1
20260507115102 0 173 4.0 4.0 0.00 0.00 0.04 82 1014.0
20260507114603 0 176 4.0 6.0 0.00 0.00 0.04 83 1014.2
20260507114102 0 202 11.0 13.0 0.00 0.00 0.04 80 1014.2
20260507113603 0 123 6.0 9.0 0.00 0.00 0.04 80 1014.2
20260507113103 0 153 10.0 11.0 0.00 0.00 0.04 78 1014.6
20260507112603 0 148 5.0 8.0 0.00 0.00 0.04 78 1014.2
20260507112102 0 210 6.0 8.0 0.00 0.00 0.04 82 1014.3
20260507111602 0 224 8.0 11.0 0.00 0.00 0.04 82 1014.2
20260507111102 0 180 6.0 8.0 0.00 0.00 0.04 77 1014.1
20260507110602 0 178 6.0 8.0 0.00 0.00 0.04 79 1014.2
20260507105602 0 182 4.0 5.0 0.00 0.00 0.04 78 1014.3
20260507105102 0 179 7.0 9.0 0.00 0.00 0.04 79 1014.3
20260507104603 0 103 6.0 11.0 0.00 0.00 0.04 83 1014.2
20260507104103 0 163 7.0 8.0 0.00 0.00 0.04 85 1014.3
20260507103603 0 187 6.0 9.0 0.00 0.00 0.04 81 1014.3
20260507103103 0 101 5.0 10.0 0.00 0.00 0.04 82 1014.3
20260507102603 0 159 7.0 9.0 0.00 0.00 0.04 83 1014.5
20260507102102 0 76 4.0 5.0 0.00 0.00 0.04 81 1014.6
20260507101602 0 140 4.0 9.0 0.00 0.00 0.04 80 1014.3
20260507101103 0 125 7.0 11.0 0.00 0.00 0.04 80 1014.3
20260507100603 0 161 5.0 6.0 0.00 0.00 0.04 80 1014.2
20260507095602 0 174 7.0 8.0 0.00 0.00 0.04 78 1014.5
20260507095103 0 103 2.0 3.0 0.00 0.00 0.04 78 1014.2
20260507094603 0 132 6.0 9.0 0.00 0.00 0.04 80 1014.2
20260507094103 0 171 7.0 8.0 0.00 0.00 0.04 80 1014.3
20260507093603 0 182 7.0 9.0 0.00 0.00 0.04 78 1014.2
20260507093103 0 190 8.0 9.0 0.00 0.00 0.04 81 1014.3
20260507092603 0 190 5.0 6.0 0.00 0.00 0.04 80 1014.2
20260507092102 0 198 8.0 10.0 0.00 0.00 0.04 81 1014.6
20260507091602 0 177 8.0 11.0 0.00 0.00 0.04 82 1014.3
20260507091103 0 121 7.0 9.0 0.00 0.00 0.04 80 1014.3
20260507090602 0 175 6.0 8.0 0.00 0.00 0.04 84 1014.2
20260507085603 0 177 8.0 9.0 0.00 0.00 0.04 84 1014.2
20260507085103 0 169 4.0 5.0 0.00 0.00 0.04 83 1014.2
20260507084603 0 194 8.0 11.0 0.00 0.00 0.04 84 1014.2
20260507084102 0 163 5.0 6.0 0.00 0.00 0.04 87 1014.2
20260507083603 0 196 4.0 4.0 0.00 0.00 0.04 87 1014.0
20260507083102 0 83 3.0 5.0 0.00 0.00 0.04 88 1014.0
20260507082603 0 86 2.0 2.0 0.00 0.00 0.04 87 1013.7
20260507082103 0 64 1.0 1.0 0.00 0.00 0.04 90 1013.7
20260507081602 0 221 1.0 1.0 0.00 0.00 0.04 89 1014.0
20260507081102 0 342 0.0 1.0 0.00 0.00 0.04 93 1013.7
20260507080603 0 7 3.0 4.0 0.00 0.00 0.04 94 1014.0
20260507080103 0 26 4.0 5.0 0.00 0.00 0.04 96 1013.7
20260507075603 0 53 0.0 0.0 0.03 0.00 0.04 99 1013.7
20260507075102 0 78 0.0 0.0 0.03 0.00 0.04 99 1013.7
20260507074602 0 104 2.0 3.0 0.03 0.00 0.04 99 1013.8
20260507074103 0 99 0.0 1.0 0.03 0.00 0.04 99 1013.6
20260507073602 0 87 0.0 1.0 0.03 0.00 0.04 97 1013.7
20260507073102 0 155 2.0 3.0 0.02 0.00 0.03 95 1013.7
20260507072602 0 210 3.0 3.0 0.01 0.00 0.02 91 1013.6
20260507072103 0 213 1.0 1.0 0.00 0.00 0.01 87 1013.6
20260507071603 0 302 1.0 1.0 0.00 0.00 0.01 85 1013.6
20260507071103 0 12 0.0 1.0 0.00 0.00 0.01 84 1013.7
20260507070604 0 46 0.0 0.0 0.00 0.00 0.01 92 1013.7
20260507065602 0 74 0.0 1.0 0.00 0.00 0.01 96 1013.7
20260507065103 0 171 2.0 2.0 0.00 0.00 0.01 97 1013.7
20260507064602 0 165 3.0 4.0 0.00 0.00 0.01 96 1013.5
20260507064103 0 172 1.0 2.0 0.00 0.00 0.01 96 1013.5
20260507063603 0 45 0.0 0.0 0.00 0.00 0.01 93 1013.3
20260507063103 0 113 1.0 1.0 0.00 0.00 0.01 92 1013.2
20260507062602 0 101 1.0 1.0 0.00 0.00 0.01 89 1013.2
20260507062102 0 44 0.0 1.0 0.00 0.00 0.01 92 1013.2
20260507061602 0 36 0.0 0.0 0.00 0.00 0.01 95 1013.3
20260507061102 0 80 0.0 1.0 0.00 0.00 0.01 96 1013.2
20260507060603 0 73 0.0 1.0 0.00 0.00 0.01 98 1013.3
20260507055603 0 20 0.0 1.0 0.01 0.00 0.01 99 1013.2
20260507055103 0 195 0.0 0.0 0.01 0.00 0.01 99 1013.5
20260507054603 0 85 0.0 1.0 0.01 0.00 0.01 99 1013.3
20260507054102 0 43 0.0 0.0 0.01 0.00 0.01 99 1013.2
20260507053602 0 99 0.0 0.0 0.01 0.00 0.01 99 1013.1
20260507053103 0 58 0.0 1.0 0.01 0.00 0.01 99 1013.2
20260507052602 0 48 0.0 0.0 0.01 0.00 0.01 99 1013.0
20260507052103 0 47 0.0 0.0 0.01 0.00 0.01 99 1013.0
20260507051603 0 58 0.0 0.0 0.01 0.00 0.01 99 1012.8
20260507051102 0 173 1.0 1.0 0.01 0.00 0.01 99 1012.8
20260507050602 0 84 0.0 1.0 0.01 0.00 0.01 99 1012.8
20260507045603 0 180 1.0 2.0 0.00 0.00 0.00 99 1012.7
20260507045102 0 88 0.0 0.0 0.00 0.00 0.00 99 1012.7
20260507044602 0 123 0.0 1.0 0.00 0.00 0.00 99 1012.7
20260507044102 0 130 0.0 0.0 0.00 0.00 0.00 99 1012.7
20260507043602 0 178 2.0 3.0 0.00 0.00 0.00 99 1012.7
20260507043103 0 47 0.0 0.0 0.00 0.00 0.00 99 1012.7
20260507042603 0 160 1.0 1.0 0.00 0.00 0.00 99 1012.7
20260507042102 0 193 2.0 2.0 0.00 0.00 0.00 99 1012.2
20260507041603 0 89 0.0 1.0 0.00 0.00 0.00 99 1012.6
20260507041103 0 204 1.0 2.0 0.00 0.00 0.00 99 1012.3
20260507040603 0 61 0.0 0.0 0.00 0.00 0.00 99 1012.7
20260507035603 0 79 0.0 0.0 0.00 0.00 0.00 99 1012.7
20260507035102 0 79 0.0 0.0 0.00 0.00 0.00 99 1012.6
20260507034602 0 183 1.0 2.0 0.00 0.00 0.00 99 1012.7
20260507034102 0 185 1.0 1.0 0.00 0.00 0.00 99 1012.6
20260507033603 0 79 0.0 0.0 0.00 0.00 0.00 99 1012.5
20260507032603 0 78 0.0 0.0 0.00 0.00 0.00 99 1012.5
20260507032103 0 78 0.0 0.0 0.00 0.00 0.00 99 1012.5
20260507031602 0 78 0.0 0.0 0.00 0.00 0.00 99 1012.3
20260507031103 0 78 0.0 0.0 0.00 0.00 0.00 99 1012.6
20260507030603 0 177 1.0 2.0 0.00 0.00 0.00 99 1012.2
20260507025603 0 185 1.0 1.0 0.00 0.00 0.00 99 1012.3
20260507025103 0 62 0.0 0.0 0.00 0.00 0.00 99 1012.3
20260507024602 0 183 1.0 2.0 0.00 0.00 0.00 99 1012.2
20260507024102 0 60 0.0 0.0 0.00 0.00 0.00 99 1012.5
20260507023602 0 61 0.0 0.0 0.00 0.00 0.00 99 1012.3
20260507023103 0 60 0.0 0.0 0.00 0.00 0.00 99 1012.6
20260507022602 0 83 0.0 0.0 0.00 0.00 0.00 99 1012.2
20260507022102 0 85 0.0 0.0 0.00 0.00 0.00 99 1012.5
20260507021603 0 86 0.0 1.0 0.00 0.00 0.00 99 1012.5
20260507021103 0 110 0.0 1.0 0.00 0.00 0.00 99 1012.3
20260507020603 0 75 0.0 0.0 0.00 0.00 0.00 99 1012.5
20260507015602 0 84 0.0 0.0 0.00 0.00 0.00 99 1012.3
20260507015103 0 78 0.0 0.0 0.00 0.00 0.00 99 1012.6
20260507014604 0 78 0.0 0.0 0.00 0.00 0.00 99 1012.5
20260507014103 0 236 0.0 1.0 0.00 0.00 0.00 99 1012.5
20260507013602 0 182 1.0 2.0 0.00 0.00 0.00 99 1012.2
20260507012602 0 101 0.0 0.0 0.00 0.00 0.00 99 1012.5
20260507012103 0 61 0.0 0.0 0.00 0.00 0.00 99 1012.6
20260507011603 0 9 0.0 0.0 0.00 0.00 0.00 99 1012.5
20260507011103 0 66 0.0 0.0 0.00 0.00 0.00 99 1012.3
20260507010603 0 63 0.0 0.0 0.00 0.00 0.00 99 1012.6
20260507010104 0 73 0.0 0.0 0.00 0.00 0.00 99 1012.3
20260507005602 0 115 0.0 1.0 0.00 0.00 0.00 99 1012.6
20260507005102 0 179 0.0 1.0 0.00 0.00 0.00 99 1012.3
20260507004603 0 72 0.0 0.0 0.00 0.00 0.00 99 1012.5
20260507004103 0 160 1.0 1.0 0.00 0.00 0.00 99 1012.6
20260507003602 0 173 1.0 2.0 0.00 0.00 0.00 99 1012.7
20260507003102 0 67 0.0 0.0 0.00 0.00 0.00 99 1012.7
20260507002602 0 123 1.0 1.0 0.00 0.00 0.00 99 1012.6
20260507002103 0 203 0.0 1.0 0.00 0.00 0.00 99 1012.3
20260507001602 0 238 0.0 1.0 0.00 0.00 0.00 99 1012.7
20260507001102 0 171 0.0 1.0 0.00 0.00 0.00 99 1012.5
20260507000602 0 76 0.0 1.0 0.00 0.00 0.00 99 1012.6
20260506235602 0 94 0.0 1.0 0.00 0.00 0.00 99 1012.7
20260506235102 0 81 0.0 0.0 0.00 0.00 0.00 99 1012.7
20260506234603 0 234 0.0 1.0 0.00 0.00 0.00 99 1012.7
20260506234102 0 102 0.0 0.0 0.00 0.00 0.00 99 1012.8
20260506233602 0 84 0.0 0.0 0.00 0.00 0.00 99 1012.6
20260506233103 0 130 0.0 1.0 0.00 0.00 0.00 99 1012.8
20260506232603 0 103 0.0 1.0 0.00 0.00 0.00 99 1012.7
20260506232102 0 37 0.0 0.0 0.00 0.00 0.00 99 1012.7
20260506231603 0 27 0.0 0.0 0.00 0.00 0.00 99 1012.7
20260506231103 0 15 0.0 0.0 0.00 0.00 0.00 99 1012.7
20260506230603 0 125 1.0 1.0 0.00 0.00 0.00 99 1012.8
20260506225603 0 187 1.0 2.0 0.00 0.00 1.29 99 1012.7
20260506225103 0 70 0.0 0.0 0.00 0.00 1.29 99 1012.6
20260506224602 0 93 1.0 1.0 0.00 0.00 1.29 99 1012.6
20260506224103 0 173 1.0 1.0 0.00 0.00 1.29 99 1012.7
20260506223604 0 70 0.0 0.0 0.00 0.00 1.29 99 1012.6
20260506223103 0 93 0.0 0.0 0.00 0.00 1.29 99 1012.6
20260506222603 0 69 0.0 0.0 0.00 0.00 1.29 99 1012.3
20260506221603 0 109 0.0 1.0 0.00 0.00 1.29 99 1012.7
20260506221102 0 153 1.0 2.0 0.00 0.00 1.29 99 1012.6
20260506220603 0 153 0.0 1.0 0.00 0.00 1.29 99 1012.6
20260506215602 0 82 0.0 0.0 0.00 0.00 1.29 99 1012.7
20260506215102 0 198 1.0 1.0 0.00 0.00 1.29 99 1012.7
20260506214602 0 78 0.0 0.0 0.00 0.00 1.29 99 1012.5